Soerstokken current weather conditions

sailwx.info

Wind from 110 at 7 knots

Air temperature 6.0° C
Visibility: greater than 5.4 NM
Dewpoint 4.0° C

Last reported at 2018-Apr-26 04:20 UTC.
Time now 2018-Apr-26 06:01 UTC

Location: N 59°48' E 005°20'.
View on Google Maps.

See reports from other nearby stations

  
Tides and Currents Weather Stations Pressure Air Temp Water Temp Dewpoint Dewpoint Depression Visibility Wind Speed Wind Dir Waves Ship Positions
date/time (UTC)wind fromknots sea level pressurealtimeterstation pressurevisibilityair tempwater tempwave heightnotes
2018-Apr-26 04:20 110 7 5.4 6.0
2018-Apr-26 03:50 120 7 5.4 6.0
2018-Apr-25 17:50 240 4 5.4 7.0
2018-Apr-25 16:50 250 6 5.4 8.0
2018-Apr-25 16:20 240 4 5.4 8.0
2018-Apr-25 15:20 240 7 5.4 8.0
2018-Apr-25 14:50 240 6 5.4 8.0
2018-Apr-25 14:20 240 6 5.410.0 Showers in the vicinity.
2018-Apr-25 13:50 250 8 5.4 9.0 Showers in the vicinity.
2018-Apr-25 13:20 270 6 5.410.0 Showers in the vicinity.
2018-Apr-25 12:50 250 9 5.411.0 Showers in the vicinity.
2018-Apr-25 12:20 250 9 5.4 9.0 Showers in the vicinity.
2018-Apr-25 11:50 240 6 5.4 8.0 Showers in the vicinity.
2018-Apr-25 11:20 240 7 5.4 8.0
2018-Apr-25 10:50 240 8 5.4 8.0
2018-Apr-25 10:20 250 6 5.4 8.0
2018-Apr-25 09:50 200 2 5.4 7.0
2018-Apr-25 08:50 140 6 5.4 6.0
2018-Apr-25 08:20 130 6 5.4 6.0 Light rain.
2018-Apr-25 07:50 130 5 5.4 6.0
2018-Apr-25 07:20 130 2 5.4 6.0
2018-Apr-25 06:50 130 5 4.9 5.0 Drizzle rain.
2018-Apr-25 06:20 120 4 4.9 5.0 Drizzle rain.
2018-Apr-25 05:50 130 5 5.4 5.0 Light rain drizzle.
2018-Apr-25 05:20 140 6 5.4 5.0 Light rain drizzle.
2018-Apr-25 04:50 130 4 5.4 5.0 Drizzle rain.
2018-Apr-25 04:20 070 1 5.4 4.0 Drizzle rain.
2018-Apr-25 03:50 030 1 5.4 4.0
2018-Apr-24 17:20 270 6 5.4 7.0
2018-Apr-24 16:50 270 6 2.7 7.0 Mist.
2018-Apr-24 16:20 270 6 1.9 7.0 Light rain drizzle. Mist.
2018-Apr-24 15:50 260 6 4.9 7.0 Light rain.
2018-Apr-24 15:20 270 6 5.4 7.0 Light rain.
2018-Apr-24 14:50 260 6 5.4 7.0 Light rain.
2018-Apr-24 14:20 260 5 5.4 8.0 Light rain.
2018-Apr-24 13:50 260 7 5.4 8.0 Light rain showers.
2018-Apr-24 12:50 270 7 5.4 8.0 Light rain showers.
2018-Apr-24 12:20 270 9 5.4 8.0 Light rain showers.
2018-Apr-24 11:50 270 8 5.4 7.0
2018-Apr-24 11:20 280 8 5.4 8.0
2018-Apr-24 10:50 290 8 5.4 7.0
2018-Apr-24 10:20 280 5 4.3 7.0 Light rain drizzle.
2018-Apr-24 09:50 290 6 2.2 7.0 Drizzle rain. Mist.
2018-Apr-24 08:50 230 4 0.8 7.0 Drizzle rain. Mist.
2018-Apr-24 08:20 220 6 1.1 7.0 Drizzle rain. Mist.
2018-Apr-24 07:50 200 4 1.3 6.0 Drizzle rain. Mist.
2018-Apr-24 07:20 180 5 1.6 7.0 Light rain drizzle. Mist.
2018-Apr-24 06:50 160 5 2.7 6.0 Light rain drizzle. Mist.
2018-Apr-24 06:20 160 6 2.7 6.0 Light rain drizzle. Mist.